Date String (YYYY-MM-DD hh:mm:ss) UTC,Instrument flags,Ambient pressure (hPa),Sample flow (lpm),Bypass flow (lpm),Sample temperature (°C),Ambient temperature (°C),ASC tube jacket temperature (°C),LED temperature (°C),Box temperature (°C),Sample RH (%),Span deviation,Mass concentration (μg/m³),Mass concentration (μg/m³),Mass concentration (μg/m³)
DateTimeUTC,F1_M11,P_M11,Q1_M11,Q2_M11,T1_M11,T2_M11,T3_M11,T4_M11,T5_M11,U1_M11,ZSPAN_M11,X0_M11,X2_M11,X1_M11
2022-01-28 19:00:00,,0834.8,5.00,0.00,25.1,24.2,00.0,34.0,26.9,06.4,0000.0,0008.88,0003.42,0002.74
2022-01-28 19:01:00,,0834.8,5.00,0.00,25.1,24.2,00.0,34.0,26.8,06.1,0000.0,0008.93,0003.44,0002.82
2022-01-28 19:02:00,,0834.7,4.99,0.00,25.1,24.2,00.0,34.0,26.9,06.3,0000.0,0009.34,0003.50,0002.90
2022-01-28 19:03:00,,0834.7,5.00,0.00,25.1,24.2,00.0,34.0,26.9,06.2,0000.0,0009.49,0003.52,0002.95
2022-01-28 19:04:00,,0834.7,5.00,0.00,25.1,24.2,00.0,34.0,26.9,06.5,0000.0,0009.78,0003.56,0002.99
2022-01-28 19:05:00,,0834.7,5.02,0.00,25.1,24.2,00.0,34.0,26.9,06.4,0000.0,0009.95,0003.59,0003.01
2022-01-28 19:06:00,,0834.7,5.00,0.00,25.0,24.2,00.0,34.0,26.8,06.7,0000.0,0009.20,0003.56,0002.99
2022-01-28 19:07:00,,0834.7,5.00,0.00,25.0,24.2,00.0,34.0,26.9,06.5,0000.0,0009.00,0003.53,0002.96
2022-01-28 19:08:00,,0834.7,5.00,0.00,25.1,24.2,00.0,34.0,26.8,06.8,0000.0,0009.49,0003.54,0002.99
2022-01-28 19:09:00,,0834.7,5.00,0.00,25.0,24.2,00.0,34.0,26.8,06.5,0000.0,0009.41,0003.52,0003.00
2022-01-28 19:10:00,,0834.6,5.00,0.00,25.1,24.2,00.0,34.0,26.9,06.4,0000.0,0008.93,0003.55,0003.02
2022-01-28 19:11:00,,0834.6,5.00,0.00,25.1,24.3,00.0,34.0,26.9,07.2,0000.0,0009.31,0003.54,0002.99
2022-01-28 19:12:00,,0834.6,5.00,0.00,25.1,24.3,00.0,34.0,26.9,06.9,0000.0,0009.94,0003.54,0003.01
2022-01-28 19:13:00,,0834.6,4.99,0.00,25.1,24.3,00.0,34.0,26.9,07.1,0000.0,0010.00,0003.52,0003.03
2022-01-28 19:14:00,,0834.6,4.99,0.00,25.1,24.4,00.0,34.0,26.9,06.7,0000.0,0009.90,0003.55,0003.06
2022-01-28 19:15:00,,0834.6,5.01,0.00,25.1,24.4,00.0,34.0,27.0,06.2,0000.0,0009.97,0003.52,0003.05
2022-01-28 19:16:00,,0834.6,5.01,0.00,25.1,24.4,00.0,34.0,27.0,06.5,0000.0,0009.83,0003.48,0002.98
2022-01-28 19:17:00,,0834.6,5.01,0.00,25.1,24.4,00.0,34.0,27.0,06.3,0000.0,0009.78,0003.42,0002.89
2022-01-28 19:18:00,,0834.6,4.99,0.00,25.1,24.4,00.0,34.0,27.0,06.7,0000.0,0010.19,0003.40,0002.82
2022-01-28 19:19:00,,0834.6,5.00,0.00,25.2,24.4,00.0,34.1,27.0,06.0,0000.0,0009.50,0003.33,0002.68
2022-01-28 19:20:00,,0834.6,4.99,0.00,25.2,24.4,00.0,34.1,27.0,06.1,0000.0,0009.33,0003.28,0002.54
2022-01-28 19:21:00,,0834.5,5.00,0.00,25.2,24.4,00.0,34.1,27.0,06.1,0000.0,0009.14,0003.20,0002.41
2022-01-28 19:22:00,,0834.6,5.00,0.00,25.2,24.4,00.0,34.1,27.0,06.2,0000.0,0008.82,0003.12,0002.28
2022-01-28 19:23:00,,0834.6,4.99,0.00,25.2,24.4,00.0,34.1,27.0,06.1,0000.0,0008.54,0002.97,0002.15
2022-01-28 19:24:00,,0834.6,5.00,0.00,25.2,24.4,00.0,34.1,27.0,06.2,0000.0,0008.11,0002.86,0002.03
2022-01-28 19:25:00,,0834.6,5.01,0.00,25.2,24.3,00.0,34.1,27.0,06.2,0000.0,0007.44,0002.65,0001.88
2022-01-28 19:26:00,,0834.6,5.01,0.00,25.2,24.3,00.0,34.1,27.0,06.1,0000.0,0006.94,0002.51,0001.77
2022-01-28 19:27:00,,0834.6,5.00,0.00,25.2,24.4,00.0,34.1,27.0,06.0,0000.0,0006.84,0002.40,0001.68
2022-01-28 19:28:00,,0834.5,4.99,0.00,25.2,24.4,00.0,34.1,27.0,05.8,0000.0,0006.65,0002.32,0001.61
2022-01-28 19:29:00,,0834.5,5.00,0.00,25.2,24.4,00.0,34.1,27.0,06.1,0000.0,0005.64,0002.17,0001.52
2022-01-28 19:30:00,,0834.5,5.00,0.00,25.2,24.4,00.0,34.1,27.0,06.3,0000.0,0005.73,0002.11,0001.45
2022-01-28 19:31:00,,0834.5,5.00,0.00,25.2,24.4,00.0,34.1,27.0,05.9,0000.0,0005.48,0001.94,0001.37
2022-01-28 19:32:00,,0834.5,5.00,0.00,25.2,24.5,00.0,34.1,27.1,05.9,0000.0,0005.41,0001.90,0001.31
2022-01-28 19:33:00,,0834.4,4.99,0.00,25.2,24.5,00.0,34.1,27.1,05.7,0000.0,0005.12,0001.86,0001.25
2022-01-28 19:34:00,,0834.4,5.01,0.00,25.2,24.5,00.0,34.1,27.1,05.9,0000.0,0004.71,0001.78,0001.20
2022-01-28 19:35:00,,0834.4,4.99,0.00,25.3,24.5,00.0,34.1,27.1,05.8,0000.0,0004.56,0001.71,0001.16
2022-01-28 19:36:00,,0834.4,5.01,0.00,25.3,24.5,00.0,34.1,27.1,06.4,0000.0,0004.62,0001.73,0001.14
2022-01-28 19:37:00,,0834.4,5.01,0.00,25.3,24.6,00.0,34.1,27.1,06.3,0000.0,0004.71,0001.75,0001.13
2022-01-28 19:38:00,,0834.4,5.00,0.00,25.3,24.6,00.0,34.2,27.1,06.4,0000.0,0005.12,0001.79,0001.12
2022-01-28 19:39:00,,0834.3,4.99,0.00,25.3,24.6,00.0,34.2,27.1,06.6,0000.0,0007.07,0001.77,0001.11
2022-01-28 19:40:00,,0834.3,5.00,0.00,25.3,24.6,00.0,34.2,27.2,06.2,0000.0,0007.35,0001.75,0001.11
2022-01-28 19:41:00,,0834.2,5.00,0.00,25.3,24.6,00.0,34.2,27.2,06.0,0000.0,0007.08,0001.73,0001.12
2022-01-28 19:42:00,,0834.2,5.00,0.00,25.4,24.6,00.0,34.2,27.2,06.0,0000.0,0006.91,0001.73,0001.13
2022-01-28 19:43:00,,0834.2,5.01,0.00,25.4,24.6,00.0,34.2,27.2,06.1,0000.0,0006.88,0001.74,0001.15
2022-01-28 19:44:00,,0834.2,5.01,0.00,25.4,24.7,00.0,34.2,27.2,06.3,0000.0,0006.78,0001.73,0001.18
2022-01-28 19:45:00,,0834.2,5.00,0.00,25.4,24.7,00.0,34.2,27.2,06.3,0000.0,0006.86,0001.79,0001.20
2022-01-28 19:46:00,,0834.2,5.00,0.00,25.4,24.7,00.0,34.2,27.2,05.9,0000.0,0006.99,0001.82,0001.21
2022-01-28 19:47:00,,0834.1,5.00,0.00,25.4,24.7,00.0,34.3,27.2,06.1,0000.0,0007.39,0001.84,0001.22
2022-01-28 19:48:00,,0834.1,4.99,0.00,25.4,24.7,00.0,34.3,27.2,06.5,0000.0,0007.68,0001.84,0001.22
2022-01-28 19:49:00,,0834.1,5.00,0.00,25.4,24.7,00.0,34.3,27.2,06.2,0000.0,0007.53,0001.83,0001.23
2022-01-28 19:50:00,,0834.1,5.02,0.00,25.4,24.7,00.0,34.3,27.3,06.0,0000.0,0005.89,0001.89,0001.23
2022-01-28 19:51:00,,0834.1,5.00,0.00,25.4,24.7,00.0,34.3,27.3,06.1,0000.0,0005.50,0001.95,0001.26
2022-01-28 19:52:00,,0834.0,5.00,0.00,25.5,24.7,00.0,34.3,27.3,06.3,0000.0,0005.57,0001.97,0001.26
2022-01-28 19:53:00,,0834.0,5.00,0.00,25.5,24.7,00.0,34.3,27.3,06.1,0000.0,0005.59,0002.00,0001.28
2022-01-28 19:54:00,,0834.1,5.00,0.00,25.5,24.8,00.0,34.3,27.3,06.6,0000.0,0005.60,0002.00,0001.29
2022-01-28 19:55:00,,0834.0,5.00,0.00,25.5,24.8,00.0,34.3,27.3,06.7,0000.0,0005.91,0002.02,0001.28
2022-01-28 19:56:00,,0834.0,5.01,0.00,25.5,24.8,00.0,34.3,27.3,06.8,0000.0,0005.56,0002.03,0001.29
2022-01-28 19:57:00,,0834.1,4.99,0.00,25.5,24.8,00.0,34.4,27.4,06.5,0000.0,0005.47,0002.04,0001.29
2022-01-28 19:58:00,,0834.0,5.00,0.00,25.5,24.8,00.0,34.4,27.4,06.3,0000.0,0006.62,0002.08,0001.30
2022-01-28 19:59:00,,0834.0,5.02,0.00,25.5,24.8,00.0,34.4,27.4,06.4,0000.0,0006.18,0002.11,0001.32
